Wind_Speed
45 46 47 49 51 51 51 50 49 49 50 50 51 53 56 58 59 60 60 61 61 62 63 64 65 66 66 67 68 69 70 72 73 74 76 77 77 77 77 76 76 75 75 75 75 75 75 75 75 75 75 75 75 75 75 75 76 76 76 76 77 77
46 47 50 52 53 52 52 51 51 52 53 53 54 57 59 60 60 60 61 62 63 64 65 65 66 67 68 69 70 71 72 74 75 76 77 77 77 77 77 77 76 76 75 75 75 75 75 75 76 76 75 76 76 76 76 76 76 77 77 77 78 78
49 50 52 53 54 53 53 54 55 55 55 56 58 61 61 61 61 61 62 64 65 66 67 68 69 70 70 71 72 73 74 75 76 77 77 77 77 77 77 76 76 76 76 76 76 76 76 76 76 76 76 76 76 76 77 77 77 78 78 79 80 80
52 53 54 55 55 55 56 57 57 56 56 59 62 63 63 63 63 64 64 65 67 68 70 71 71 72 72 73 74 75 76 76 77 77 77 77 77 77 76 76 76 76 76 76 76 76 76 76 76 76 76 76 76 76 77 78 79 79 80 81 82 83
55 55 56 57 57 57 58 57 55 56 59 62 63 64 65 66 65 65 66 67 68 70 71 72 73 73 74 75 76 76 76 77 77 77 77 77 77 76 76 76 76 76 77 77 77 76 76 76 75 75 76 76 77 78 78 80 81 82 83 84 85 85
57 58 59 58 58 57 57 56 56 59 62 63 64 66 67 67 67 67 67 69 71 72 73 73 74 75 75 76 76 76 77 77 77 77 77 76 76 76 76 76 76 76 77 77 77 76 76 76 76 76 77 77 78 80 81 82 83 85 86 87 88 88
60 61 60 58 57 57 57 57 59 62 64 65 67 68 68 67 67 68 70 72 72 73 74 75 76 76 76 76 77 77 77 78 77 77 76 76 76 76 76 76 76 76 76 76 76 76 76 76 77 78 79 80 81 83 84 85 87 88 88 89 89 89
62 61 59 58 58 58 59 60 62 64 66 68 69 70 69 68 69 71 72 73 74 75 75 76 76 76 77 77 77 77 78 77 77 76 76 75 75 75 76 76 75 76 76 76 76 76 77 78 79 80 82 83 84 86 87 88 88 89 89 88 87 86
62 60 59 60 61 61 62 63 66 68 69 70 71 71 69 69 71 73 74 74 75 75 76 76 76 77 77 77 77 77 77 77 76 76 75 75 75 75 75 75 75 76 76 77 77 78 79 81 82 84 85 86 87 88 88 88 87 86 85 84 83 81
61 60 62 64 64 64 65 66 68 69 70 71 72 71 71 72 73 74 74 75 75 76 76 76 76 76 77 77 77 77 76 76 76 75 74 74 74 74 75 75 75 76 77 78 80 81 82 84 85 86 87 87 87 86 85 84 83 81 80 78 76 75
61 63 65 66 65 66 67 68 70 71 72 72 72 72 72 74 74 75 75 76 76 76 76 76 76 76 76 76 76 76 75 75 74 74 73 74 74 74 75 75 76 77 79 81 82 84 85 85 86 86 86 85 84 82 80 79 77 75 73 71 70 68
64 66 67 66 67 68 69 70 71 72 72 72 72 73 74 74 75 76 76 76 76 76 76 75 75 75 75 75 75 75 74 74 73 73 73 74 74 75 75 76 78 80 81 83 84 84 85 85 84 83 82 80 78 76 74 72 70 69 67 65 64 63
66 67 67 68 69 70 70 71 71 72 72 73 74 74 75 76 76 76 76 75 75 75 74 74 73 73 73 73 73 73 73 73 72 73 73 74 75 75 77 78 80 82 82 83 83 83 83 81 80 78 77 75 73 71 69 67 65 64 63 62 62 62
67 67 68 69 70 70 71 71 72 73 74 74 74 75 76 76 75 75 75 75 74 73 72 72 72 71 71 72 72 72 72 72 72 73 73 74 76 77 79 80 81 81 81 81 80 79 78 77 75 73 72 70 68 66 64 62 61 61 60 61 61 62
68 68 69 70 70 70 71 72 74 75 75 75 75 76 76 75 74 75 74 73 72 70 70 70 70 69 70 70 71 72 72 72 73 73 74 76 77 78 79 79 79 78 78 77 76 75 74 72 71 69 67 65 63 62 61 60 60 59 60 60 60 60
68 69 69 69 70 71 73 75 76 76 76 76 76 75 74 74 73 73 72 71 70 69 68 68 68 68 69 70 71 72 72 73 73 75 76 77 78 78 77 76 75 74 74 73 72 71 70 68 66 64 63 61 60 60 59 59 59 58 58 59 59 59
68 69 70 71 73 75 76 77 77 77 77 75 74 73 73 72 72 72 70 68 68 67 67 67 67 68 69 70 71 72 72 73 75 76 77 77 76 74 72 71 71 71 70 69 68 67 66 64 62 61 59 59 58 58 58 58 57 57 57 57 57 57
70 71 72 74 76 77 78 78 78 76 75 73 72 72 72 71 71 70 68 67 66 66 66 66 67 68 69 70 71 72 73 75 76 76 75 73 71 69 68 68 68 68 67 67 66 64 62 61 60 58 58 58 57 57 57 57 56 56 56 56 55 56
72 73 75 77 78 78 78 77 75 74 72 72 71 71 71 70 69 67 66 65 65 65 66 67 68 68 69 70 72 73 74 74 74 73 70 68 66 65 65 66 65 65 65 64 63 61 60 59 58 57 57 57 57 57 56 56 55 55 54 54 54 54
74 75 77 78 77 76 75 73 72 71 71 70 70 69 69 68 66 65 65 65 65 66 67 67 68 69 70 71 72 73 73 72 70 67 65 64 63 64 64 64 64 63 63 61 60 59 58 58 57 57 56 57 57 56 56 55 54 54 53 53 53 54
76 77 77 76 74 73 72 71 71 70 69 69 68 68 66 65 64 64 65 65 66 66 67 68 69 70 71 71 72 72 70 68 65 63 62 62 63 63 63 63 62 61 60 59 58 57 56 56 56 56 56 56 56 56 56 55 54 54 53 53 53 54
77 76 75 73 72 72 71 70 69 69 68 67 66 65 64 63 64 65 66 66 66 67 68 69 70 71 71 71 70 68 65 63 61 61 62 62 63 62 62 61 60 59 57 57 56 56 56 55 55 55 55 56 56 56 56 56 55 55 55 54 55 55
75 74 73 72 72 71 70 69 68 67 66 65 64 63 63 64 65 65 65 66 67 68 69 70 71 71 70 68 66 63 61 60 61 61 62 62 62 61 60 59 58 57 56 56 55 55 55 54 54 54 55 56 56 57 57 57 57 57 57 57 57 58
73 72 71 70 70 69 68 66 65 64 63 63 62 62 63 64 65 65 66 67 68 69 70 70 70 69 66 63 60 59 60 61 61 62 62 62 61 60 59 58 56 55 55 54 54 54 54 54 54 55 56 56 57 57 58 58 58 59 59 60 60 60
71 70 69 68 67 66 65 63 62 62 62 61 61 62 64 65 65 66 67 68 69 69 69 68 66 64 61 58 58 59 60 61 62 62 62 61 60 58 57 56 55 55 54 54 53 54 54 55 55 56 57 57 58 58 59 59 60 60 61 61 62 63
68 67 66 65 64 63 62 60 60 60 60 60 61 64 65 66 67 68 68 68 69 68 66 64 61 58 57 57 58 60 61 61 62 62 61 60 59 57 55 55 54 54 54 53 53 54 55 56 57 57 58 59 59 60 60 61 61 62 62 63 63 64
65 64 63 62 60 60 59 59 59 59 59 61 64 66 67 68 68 68 68 68 66 64 61 59 57 56 56 58 60 61 61 62 62 61 60 59 57 56 55 54 54 54 53 53 54 55 56 57 58 59 60 60 61 61 62 62 63 63 64 64 65 65
62 61 60 59 58 58 58 58 59 60 61 63 66 67 68 68 68 67 66 64 61 59 57 55 55 56 58 59 60 61 62 62 61 60 59 57 56 55 54 54 54 54 54 55 56 57 57 58 58 59 60 61 62 62 63 63 64 64 65 65 65 66
59 58 58 58 58 58 59 60 61 62 63 65 67 68 68 67 66 64 62 59 57 56 55 55 56 57 58 59 60 61 61 61 60 59 57 56 55 55 55 55 56 56 56 57 58 58 59 59 59 60 61 62 63 63 64 64 64 65 65 65 66 66
57 57 57 58 59 60 61 62 63 64 65 66 67 67 66 64 61 59 57 56 56 56 56 56 57 58 59 60 60 61 61 61 60 59 58 57 56 55 56 57 58 58 59 60 60 60 61 60 60 61 62 63 63 63 64 65 65 66 66 65 66 66
57 58 59 60 61 62 63 64 65 65 66 66 65 63 62 59 57 56 55 55 56 56 57 58 59 60 61 61 61 61 61 62 62 61 60 59 58 58 58 59 59 60 61 61 62 62 61 61 60 61 62 63 63 64 65 65 65 66 65 65 66 66
59 60 61 62 63 64 65 65 65 64 63 62 61 60 58 57 56 55 55 56 57 57 58 59 61 62 62 62 62 62 62 63 63 63 63 62 61 61 61 61 60 61 61 62 62 62 62 61 61 61 62 63 64 64 65 65 65 66 65 65 66 66
62 63 63 63 64 65 64 63 61 60 58 57 57 57 57 56 56 56 56 56 57 59 60 61 62 63 63 64 64 64 64 65 65 65 65 64 63 63 63 62 62 61 61 62 62 62 62 62 62 62 63 63 64 64 64 65 65 65 64 64 65 65
64 65 64 63 62 61 60 58 56 55 55 55 55 57 57 58 57 57 57 57 58 59 61 62 62 63 64 64 65 66 66 67 67 67 67 66 64 64 63 62 62 61 61 62 62 62 62 62 62 63 63 63 63 63 64 64 65 64 63 64 65 65
66 64 62 60 58 56 54 53 53 53 54 55 56 58 58 59 59 58 58 59 59 61 62 63 63 64 64 65 66 67 68 69 69 68 67 66 65 64 62 61 61 62 62 62 62 63 63 63 63 63 63 62 62 63 63 64 64 63 64 65 64 64
64 61 58 55 53 52 52 52 53 54 55 56 57 58 58 59 59 59 60 60 61 62 63 64 64 64 65 66 67 68 68 69 69 68 67 66 65 63 62 61 61 63 64 63 63 63 63 63 63 63 63 63 63 63 64 64 64 63 63 64 63 64
59 56 54 52 52 52 52 53 54 55 56 57 57 58 58 59 59 60 61 62 63 64 64 64 64 65 66 67 67 67 67 67 67 66 66 65 65 64 62 62 62 63 64 63 63 64 64 64 64 64 64 64 64 64 64 64 63 63 63 63 63 64
54 53 52 52 53 53 54 54 55 55 56 56 57 57 58 59 60 62 63 63 64 64 65 65 65 66 66 66 66 66 65 65 64 64 64 65 65 64 63 62 62 62 63 64 64 65 65 65 65 64 64 64 64 64 64 63 63 63 63 62 63 63
Wind_Direction
273 276 281 286 289 290 289 289 288 289 292 295 297 298 298 298 297 295 294 294 294 294 293 292 291 291 291 291 292 293 295 296 296 297 297 297 297 298 298 298 298 297 296 296 295 295 294 294 294 293 293 292 292 291 290 289 289 288 288 287 287 287
278 281 285 288 290 291 291 290 289 291 292 294 296 298 298 297 296 294 293 293 293 293 293 292 292 292 292 293 294 295 296 297 297 298 298 298 298 298 298 298 297 297 296 296 295 295 295 294 294 293 292 292 291 290 290 289 289 289 288 288 288 288
282 283 287 289 291 292 292 291 291 291 291 293 296 298 298 296 295 295 294 294 293 293 293 293 293 293 294 295 296 297 298 298 298 298 298 298 298 298 298 297 297 297 296 296 295 295 294 294 293 292 291 291 290 290 290 290 290 289 289 289 289 289
283 285 288 290 291 292 291 291 290 289 290 293 297 298 297 296 295 295 295 294 293 292 292 293 294 294 295 297 298 298 298 299 299 299 298 298 298 298 297 297 297 296 296 295 295 294 293 293 292 291 291 290 290 290 290 290 290 290 290 290 290 290
283 286 288 290 292 292 291 289 288 288 291 295 297 297 296 295 295 294 293 292 292 292 293 293 294 296 297 298 298 298 299 299 299 298 298 297 297 297 297 297 296 296 295 294 294 293 292 292 291 291 291 291 291 291 291 291 291 291 291 291 291 291
284 287 290 291 292 291 289 287 286 289 292 295 295 295 294 294 292 292 292 292 292 293 294 295 296 297 298 298 298 299 299 298 298 298 297 297 297 297 296 296 295 295 294 293 293 292 292 292 292 292 292 292 292 293 293 293 293 293 293 292 292 292
285 288 290 290 290 289 288 287 287 290 292 293 294 294 293 292 290 291 292 293 293 294 295 297 298 298 298 299 299 298 298 298 297 297 297 297 297 296 295 295 294 293 293 292 292 292 293 293 293 293 294 294 294 294 294 294 294 294 294 293 293 293
286 289 289 289 289 289 289 289 290 292 293 293 293 293 292 291 291 292 293 294 295 296 297 298 298 298 299 298 298 298 297 297 297 297 296 296 296 295 294 293 293 293 293 293 293 294 294 295 295 295 295 295 295 295 295 295 295 295 294 294 294 294
288 289 289 291 291 291 292 292 293 293 292 292 292 292 292 292 292 294 295 296 297 297 298 298 298 298 298 297 297 297 297 297 296 296 296 295 294 294 293 293 293 294 294 294 295 295 296 296 296 296 296 296 296 296 296 296 296 295 295 295 295 295
289 290 291 293 293 294 294 294 293 291 291 291 291 292 292 293 294 295 296 297 297 297 297 297 297 297 297 297 296 296 296 296 295 295 295 294 294 294 294 294 295 295 296 296 296 297 297 297 297 297 297 297 297 297 297 297 296 296 296 296 295 295
290 291 292 294 294 294 293 292 290 289 289 290 291 292 294 295 295 296 297 297 297 297 296 296 296 296 296 295 295 295 295 295 294 295 294 294 294 294 295 295 296 296 297 297 297 297 297 297 297 298 298 298 298 298 297 297 297 297 296 296 295 294
290 291 293 294 293 292 290 288 288 288 288 289 291 293 294 295 295 296 296 296 296 296 295 295 295 295 295 294 294 294 294 294 294 294 294 294 295 295 296 297 297 297 297 297 297 298 298 298 298 298 298 298 298 298 298 297 297 296 295 295 294 294
290 291 292 292 290 288 286 286 286 287 288 290 292 293 294 294 295 295 295 295 295 295 295 294 294 294 294 293 293 293 293 294 294 294 294 295 295 296 297 297 297 297 297 298 298 298 298 299 299 299 299 298 298 298 297 297 296 295 295 294 294 294
289 290 290 288 286 284 284 284 285 288 290 292 293 293 293 294 294 294 294 294 294 294 294 294 293 293 293 292 292 293 293 294 294 294 295 295 296 297 297 297 297 298 298 298 298 299 299 299 299 299 299 298 298 298 297 297 296 295 295 295 295 295
288 287 286 284 283 283 284 285 288 290 292 292 292 293 293 293 294 294 294 293 293 294 293 293 293 292 292 292 292 292 293 294 294 295 295 296 297 297 297 297 298 298 298 299 299 300 300 299 299 299 299 299 298 298 298 297 296 296 296 296 297 297
285 283 282 282 282 284 286 288 290 291 292 292 292 292 292 293 293 293 293 293 293 293 292 292 291 291 291 291 292 293 294 294 295 295 296 296 297 297 297 298 298 298 299 300 300 300 300 300 300 300 299 299 298 298 298 298 298 298 299 299 299 299
281 280 281 282 284 286 288 290 291 291 291 291 291 291 292 292 292 292 292 293 293 292 291 291 291 291 291 291 292 293 294 295 295 295 296 296 297 297 298 298 299 300 300 300 300 300 301 301 300 300 300 299 299 299 300 300 301 301 301 301 301 301
279 280 282 284 286 288 289 290 290 290 290 290 291 291 291 291 291 292 292 292 291 290 290 290 290 290 291 292 293 293 294 294 294 295 296 296 297 298 299 299 300 300 301 301 301 301 301 301 301 301 300 301 301 302 302 303 303 303 303 303 303 303
280 282 284 287 288 289 290 290 290 290 290 290 290 290 290 290 290 291 291 290 290 289 289 289 290 291 291 292 292 293 293 294 295 295 296 297 297 298 299 300 301 301 301 302 302 302 301 301 301 302 302 303 304 304 305 305 305 305 305 304 304 304
283 286 288 289 290 290 289 289 289 289 289 289 289 289 289 289 289 289 289 288 288 288 289 290 290 291 291 292 292 293 293 294 295 295 296 297 297 299 300 301 301 302 302 302 301 301 302 302 302 303 304 305 305 305 306 306 306 306 306 306 306 306
287 289 290 290 289 289 288 288 287 288 288 288 288 288 288 288 288 287 287 287 288 289 290 290 290 291 291 292 292 293 294 294 295 295 296 297 298 300 301 301 302 302 302 301 301 301 302 302 303 304 305 305 306 306 306 307 307 307 307 307 307 308
290 290 289 288 288 287 287 287 287 287 287 287 287 287 287 287 286 286 287 288 289 289 289 290 291 291 292 292 293 293 294 294 294 295 296 297 299 300 301 301 301 302 301 301 301 301 302 302 303 304 305 306 307 307 308 308 309 309 309 309 310 310
289 288 287 287 286 286 286 286 286 287 287 286 286 286 285 285 285 286 287 288 289 289 290 291 291 292 292 292 293 293 293 293 294 296 297 298 300 300 300 300 301 301 300 300 300 301 301 302 303 305 306 307 308 309 310 311 311 311 311 312 312 313
286 286 286 285 285 285 285 286 286 286 285 285 285 285 284 285 286 287 288 289 290 291 291 291 291 292 292 292 292 292 293 294 296 297 298 299 299 299 299 299 300 299 299 299 299 300 301 302 303 305 307 308 309 311 312 313 314 314 314 314 314 315
285 284 284 284 284 284 285 285 285 284 284 285 285 284 285 286 287 288 289 290 291 291 291 291 291 291 291 291 292 293 294 295 296 297 298 298 298 298 298 298 298 298 298 298 299 300 301 302 304 305 306 308 309 311 312 314 315 315 315 315 315 315
283 283 283 284 284 284 284 284 284 284 285 285 285 285 286 287 288 290 290 291 291 291 291 290 290 290 290 291 292 293 295 296 296 297 297 297 297 298 298 297 297 297 297 297 298 299 300 302 303 305 306 307 308 310 312 313 314 315 315 315 315 315
283 283 283 283 283 284 284 284 284 285 286 286 285 286 288 289 290 290 291 291 291 290 289 289 289 289 290 291 292 294 295 296 296 296 296 297 297 297 297 296 296 296 296 297 298 299 300 302 303 304 305 306 307 309 310 312 313 314 314 315 315 315
283 283 283 284 284 284 284 284 285 286 286 286 287 288 289 290 290 291 291 290 289 288 287 288 288 289 290 292 293 294 295 295 295 296 296 297 296 296 296 295 295 295 295 296 297 298 300 302 303 303 304 305 306 308 309 310 311 312 313 313 314 315
283 283 283 284 284 284 284 285 286 287 287 288 289 290 290 290 290 290 289 288 287 287 287 288 288 290 291 292 293 293 294 294 295 295 296 295 295 294 294 293 293 294 294 295 296 297 299 300 302 302 303 304 305 307 307 308 309 310 311 312 313 314
283 283 284 284 285 285 286 287 288 288 289 289 290 290 289 288 288 287 287 286 286 287 288 288 289 290 291 291 292 293 293 293 293 294 295 294 293 293 292 292 293 293 293 294 295 296 297 298 300 301 302 303 304 305 306 307 307 309 310 310 311 312
284 284 285 286 287 287 288 289 289 289 289 289 289 288 287 286 285 285 285 286 286 287 288 288 289 290 291 292 292 292 292 293 293 293 294 294 293 292 292 292 292 292 293 293 294 295 295 297 299 300 300 302 303 303 304 305 306 307 308 309 310 311
286 286 287 288 288 289 289 290 289 289 288 288 287 286 285 284 284 284 285 286 286 287 288 288 289 291 291 292 292 292 292 292 293 293 294 294 293 292 292 292 292 292 292 292 293 294 295 296 297 298 299 301 301 302 303 303 304 306 307 307 308 309
287 288 288 289 289 289 289 289 288 287 286 285 285 284 284 284 284 285 286 286 287 287 288 289 290 291 291 291 292 292 292 292 293 293 294 293 293 292 292 292 292 291 291 292 293 293 294 295 296 297 298 299 300 300 301 302 303 305 305 305 306 308
288 288 289 289 289 288 287 286 285 284 283 283 283 283 284 285 285 286 286 286 286 287 289 290 291 290 290 290 291 291 292 292 293 293 294 293 292 291 291 291 291 291 290 291 292 292 293 293 294 295 297 298 298 299 300 301 303 304 303 303 305 306
288 289 289 288 286 285 283 282 282 281 281 281 282 283 284 285 286 286 286 286 287 288 289 289 289 289 289 289 289 290 291 292 293 293 293 292 291 290 290 291 291 290 289 290 290 291 291 292 293 294 295 296 297 298 299 300 301 302 301 302 304 305
288 288 286 284 282 281 280 279 279 279 280 280 281 282 283 284 284 285 286 286 287 288 288 288 288 287 288 288 289 290 291 291 292 292 292 290 289 289 290 290 290 289 289 288 289 290 291 292 292 293 294 295 296 297 298 299 301 300 301 302 303 304
286 284 283 281 280 279 279 279 279 279 279 280 281 281 282 283 284 285 285 285 286 286 287 287 287 287 288 288 289 290 290 291 291 291 290 289 288 288 289 290 289 288 288 287 288 289 290 291 291 292 293 294 295 296 298 299 300 299 300 302 302 303
283 282 281 280 280 280 280 280 280 280 280 280 281 282 283 283 283 284 284 284 285 285 286 286 287 287 288 288 289 290 290 290 290 290 289 288 288 288 288 288 287 287 286 286 287 289 289 290 290 291 292 294 295 296 298 299 299 299 300 301 301 302
Height
5751 5750 5749 5748 5746 5745 5744 5742 5741 5739 5738 5736 5735 5733 5731 5730 5728 5726 5724 5722 5721 5720 5718 5716 5714 5712 5709 5707 5704 5701 5698 5695 5692 5688 5685 5681 5678 5674 5671 5668 5665 5662 5659 5656 5653 5650 5647 5644 5641 5638 5635 5633 5630 5627 5624 5621 5618 5615 5612 5610 5607 5604
5744 5743 5741 5740 5739 5738 5737 5735 5734 5732 5731 5729 5728 5726 5725 5723 5721 5719 5717 5715 5714 5712 5710 5708 5706 5703 5700 5698 5695 5692 5688 5685 5682 5678 5675 5671 5668 5664 5661 5658 5655 5652 5649 5646 5643 5640 5637 5635 5632 5629 5626 5623 5620 5617 5614 5611 5608 5605 5602 5599 5597 5594
5736 5735 5734 5733 5732 5731 5730 5729 5727 5725 5724 5722 5721 5719 5717 5715 5713 5711 5709 5708 5706 5703 5701 5699 5697 5694 5691 5688 5685 5682 5678 5675 5672 5669 5665 5662 5658 5655 5651 5648 5645 5642 5639 5636 5633 5630 5628 5625 5623 5620 5617 5614 5610 5607 5604 5601 5598 5595 5592 5589 5586 5583
5729 5728 5727 5727 5726 5725 5723 5722 5720 5718 5717 5715 5713 5711 5709 5707 5705 5703 5702 5700 5697 5695 5693 5690 5687 5684 5681 5678 5675 5672 5668 5665 5662 5659 5656 5652 5649 5646 5642 5639 5636 5632 5629 5626 5623 5621 5618 5616 5613 5610 5607 5604 5600 5597 5594 5591 5588 5584 5581 5578 5574 5571
5723 5722 5721 5720 5720 5719 5716 5715 5713 5711 5710 5708 5706 5704 5702 5699 5698 5696 5694 5691 5689 5686 5684 5681 5678 5675 5671 5668 5665 5662 5659 5656 5653 5650 5646 5643 5639 5636 5633 5630 5626 5623 5620 5617 5614 5611 5609 5606 5604 5601 5597 5594 5591 5587 5584 5580 5577 5573 5570 5566 5562 5559
5717 5716 5715 5715 5714 5712 5710 5708 5707 5705 5703 5701 5699 5696 5694 5692 5690 5688 5685 5683 5680 5677 5674 5671 5668 5665 5661 5658 5655 5652 5649 5646 5643 5640 5637 5633 5630 5627 5624 5620 5617 5613 5610 5607 5605 5602 5600 5597 5594 5590 5587 5584 5580 5577 5573 5570 5566 5562 5558 5554 5550 5546
5711 5710 5710 5709 5707 5705 5703 5702 5700 5698 5696 5693 5690 5688 5686 5684 5682 5679 5677 5674 5671 5667 5664 5661 5658 5654 5651 5648 5645 5642 5639 5636 5634 5631 5627 5624 5621 5618 5614 5611 5608 5604 5601 5598 5595 5592 5590 5587 5583 5580 5576 5573 5570 5566 5562 5558 5554 5550 5545 5541 5537 5533
5704 5704 5703 5701 5699 5698 5696 5694 5692 5689 5687 5684 5682 5680 5678 5675 5673 5670 5667 5664 5661 5657 5654 5651 5647 5644 5641 5638 5635 5632 5629 5627 5624 5621 5618 5615 5612 5608 5605 5602 5598 5595 5592 5589 5585 5582 5579 5576 5572 5569 5565 5562 5558 5554 5550 5546 5542 5538 5533 5529 5525 5521
5697 5695 5694 5692 5691 5689 5687 5685 5682 5680 5677 5675 5673 5671 5669 5666 5664 5661 5658 5654 5651 5648 5644 5641 5637 5634 5631 5628 5625 5622 5620 5617 5614 5612 5609 5606 5602 5599 5596 5593 5589 5586 5582 5579 5575 5572 5568 5565 5561 5558 5554 5550 5547 5543 5539 5535 5530 5526 5522 5517 5513 5509
5688 5687 5685 5683 5682 5680 5678 5676 5673 5671 5669 5667 5664 5662 5660 5657 5654 5651 5648 5645 5642 5638 5635 5632 5628 5625 5622 5619 5616 5613 5610 5608 5605 5603 5600 5596 5593 5590 5586 5583 5580 5576 5572 5568 5564 5561 5557 5554 5550 5546 5543 5539 5535 5531 5527 5524 5519 5515 5511 5507 5503 5499
5680 5678 5677 5675 5673 5672 5670 5667 5665 5663 5661 5658 5656 5653 5652 5649 5645 5642 5640 5637 5633 5630 5626 5623 5619 5616 5612 5609 5606 5604 5601 5599 5596 5593 5591 5587 5584 5580 5577 5574 5570 5566 5562 5558 5554 5550 5546 5543 5539 5535 5532 5528 5524 5521 5517 5513 5510 5505 5502 5498 5494 5491
5671 5670 5669 5667 5666 5664 5662 5660 5657 5655 5653 5650 5648 5646 5643 5640 5637 5634 5632 5628 5625 5621 5617 5614 5610 5607 5604 5600 5597 5594 5592 5590 5587 5584 5581 5578 5575 5571 5568 5565 5560 5556 5552 5548 5543 5539 5535 5532 5528 5525 5521 5517 5514 5511 5508 5504 5500 5496 5493 5489 5486 5483
5664 5663 5661 5660 5658 5656 5654 5653 5650 5647 5645 5643 5640 5637 5634 5632 5629 5626 5624 5620 5616 5612 5609 5605 5602 5598 5595 5591 5588 5585 5583 5581 5578 5575 5572 5569 5566 5562 5559 5555 5551 5546 5542 5537 5533 5529 5525 5522 5519 5515 5511 5507 5504 5502 5499 5496 5492 5489 5485 5482 5478 5475
5657 5656 5654 5653 5651 5649 5647 5645 5642 5639 5637 5635 5632 5628 5625 5623 5621 5617 5614 5611 5607 5604 5600 5596 5593 5589 5586 5583 5580 5577 5574 5572 5569 5566 5563 5560 5557 5553 5549 5545 5541 5536 5532 5528 5523 5520 5516 5513 5510 5506 5502 5498 5495 5493 5491 5488 5485 5482 5478 5474 5471 5468
5650 5648 5647 5645 5643 5641 5638 5636 5633 5631 5629 5625 5622 5619 5616 5614 5611 5608 5605 5602 5598 5596 5592 5588 5585 5581 5578 5575 5571 5568 5566 5563 5560 5557 5554 5551 5547 5544 5540 5535 5531 5526 5522 5519 5515 5511 5508 5504 5501 5497 5494 5491 5488 5485 5483 5481 5477 5474 5471 5467 5464 5460
5642 5640 5639 5636 5634 5632 5630 5627 5625 5622 5619 5616 5613 5610 5607 5605 5602 5599 5596 5593 5590 5587 5583 5579 5577 5573 5570 5566 5563 5560 5557 5554 5551 5548 5545 5542 5538 5534 5530 5526 5521 5517 5514 5510 5507 5503 5499 5496 5492 5490 5486 5483 5481 5478 5475 5473 5470 5467 5463 5460 5456 5453
5634 5632 5630 5628 5626 5624 5621 5619 5616 5613 5610 5607 5604 5601 5599 5596 5592 5589 5586 5584 5581 5578 5574 5571 5569 5565 5562 5559 5555 5552 5549 5546 5542 5539 5535 5532 5528 5524 5521 5517 5513 5509 5506 5502 5499 5495 5491 5488 5485 5482 5479 5476 5473 5471 5468 5465 5462 5459 5456 5452 5449 5445
5626 5624 5622 5620 5617 5615 5612 5610 5607 5603 5601 5598 5595 5592 5589 5586 5583 5580 5577 5575 5572 5569 5566 5563 5561 5557 5555 5551 5548 5544 5541 5537 5534 5530 5527 5523 5519 5516 5512 5509 5505 5502 5498 5494 5491 5488 5484 5480 5478 5475 5472 5469 5466 5464 5461 5458 5455 5452 5449 5445 5442 5438
5617 5615 5613 5611 5608 5606 5603 5600 5597 5594 5592 5589 5586 5583 5580 5577 5574 5571 5569 5567 5564 5561 5558 5556 5553 5550 5547 5544 5540 5537 5533 5529 5526 5522 5518 5514 5511 5508 5505 5501 5498 5494 5490 5486 5483 5480 5477 5473 5471 5468 5465 5462 5459 5457 5454 5451 5448 5445 5442 5439 5435 5432
5608 5606 5603 5601 5598 5596 5593 5590 5587 5585 5582 5580 5577 5574 5571 5568 5566 5563 5561 5558 5555 5553 5550 5548 5545 5542 5539 5536 5532 5528 5524 5521 5518 5514 5510 5507 5504 5501 5497 5494 5490 5486 5483 5479 5476 5473 5471 5467 5464 5461 5458 5455 5452 5450 5447 5445 5442 5439 5435 5432 5429 5425
5598 5595 5593 5590 5588 5586 5583 5581 5578 5576 5573 5571 5568 5565 5562 5560 5557 5555 5551 5549 5547 5545 5543 5540 5536 5533 5530 5527 5524 5519 5516 5513 5510 5506 5503 5499 5496 5494 5490 5486 5483 5479 5475 5472 5469 5466 5464 5461 5457 5454 5451 5449 5446 5443 5441 5438 5435 5432 5429 5426 5423 5419
5587 5585 5583 5581 5579 5576 5574 5571 5569 5567 5564 5562 5559 5556 5554 5551 5548 5546 5543 5541 5540 5537 5534 5531 5528 5524 5521 5518 5514 5511 5508 5505 5502 5499 5495 5492 5489 5486 5482 5478 5475 5472 5469 5465 5462 5460 5457 5455 5451 5448 5445 5442 5439 5436 5434 5431 5428 5425 5422 5419 5416 5412
5576 5575 5573 5571 5569 5567 5564 5562 5560 5558 5555 5552 5550 5548 5545 5542 5539 5537 5536 5534 5531 5528 5525 5522 5518 5515 5512 5509 5506 5503 5500 5497 5494 5491 5487 5484 5481 5478 5474 5471 5468 5465 5462 5458 5456 5453 5451 5448 5446 5442 5439 5436 5433 5430 5427 5424 5421 5418 5415 5412 5409 5405
5566 5565 5563 5561 5559 5557 5555 5553 5551 5549 5546 5544 5542 5539 5535 5533 5531 5529 5527 5525 5522 5519 5516 5512 5509 5505 5502 5500 5498 5495 5492 5489 5486 5483 5479 5476 5473 5470 5467 5463 5460 5458 5455 5452 5449 5447 5444 5442 5440 5436 5433 5429 5427 5424 5421 5418 5415 5411 5408 5405 5402 5398
5556 5555 5553 5552 5550 5548 5546 5545 5543 5540 5538 5536 5533 5528 5525 5524 5522 5520 5518 5516 5513 5510 5506 5502 5499 5496 5494 5492 5489 5486 5484 5481 5478 5475 5472 5468 5465 5463 5459 5456 5453 5451 5449 5446 5444 5441 5438 5435 5433 5430 5427 5423 5420 5417 5414 5411 5408 5405 5401 5399 5396 5392
5547 5545 5544 5542 5541 5539 5537 5536 5533 5531 5529 5527 5522 5518 5517 5515 5513 5511 5509 5507 5503 5500 5496 5493 5490 5488 5486 5483 5481 5478 5476 5473 5470 5467 5464 5461 5458 5455 5452 5449 5446 5444 5442 5440 5438 5435 5432 5429 5426 5423 5420 5417 5414 5411 5408 5405 5401 5398 5395 5392 5389 5385
5537 5536 5534 5533 5531 5529 5528 5526 5523 5522 5521 5517 5512 5509 5508 5506 5504 5502 5500 5497 5494 5490 5487 5485 5482 5480 5478 5475 5473 5471 5468 5465 5462 5459 5456 5453 5450 5447 5445 5442 5440 5437 5435 5433 5431 5429 5426 5424 5421 5417 5413 5410 5407 5405 5402 5398 5395 5392 5388 5385 5382 5378
5528 5526 5525 5524 5522 5520 5518 5516 5515 5514 5512 5507 5503 5501 5499 5496 5494 5492 5490 5487 5484 5481 5479 5477 5475 5473 5470 5467 5465 5463 5460 5457 5454 5451 5449 5446 5442 5440 5438 5435 5433 5431 5429 5426 5424 5422 5420 5418 5415 5411 5407 5403 5400 5398 5395 5392 5388 5385 5382 5379 5375 5371
5519 5517 5516 5515 5513 5511 5509 5507 5506 5505 5502 5498 5494 5492 5489 5486 5485 5483 5480 5477 5475 5473 5471 5470 5468 5465 5463 5460 5457 5454 5451 5449 5446 5443 5441 5439 5435 5433 5431 5428 5426 5424 5422 5420 5418 5415 5413 5411 5408 5404 5401 5397 5394 5391 5388 5385 5382 5378 5375 5372 5369 5365
5510 5509 5507 5506 5503 5501 5499 5498 5497 5495 5492 5489 5486 5483 5480 5478 5476 5474 5471 5469 5467 5465 5464 5462 5459 5457 5455 5453 5450 5447 5444 5441 5438 5436 5434 5432 5429 5426 5424 5421 5419 5417 5414 5412 5411 5408 5406 5403 5401 5397 5394 5391 5388 5385 5382 5378 5375 5372 5368 5365 5362 5359
5502 5500 5498 5496 5493 5490 5489 5488 5486 5484 5482 5479 5477 5474 5471 5469 5467 5465 5463 5461 5459 5457 5456 5453 5451 5449 5447 5445 5442 5440 5437 5434 5431 5428 5427 5424 5421 5419 5416 5414 5412 5410 5407 5405 5403 5401 5398 5396 5393 5390 5387 5384 5381 5378 5375 5372 5368 5365 5362 5358 5355 5353
5492 5490 5488 5486 5483 5480 5479 5478 5476 5473 5471 5469 5467 5465 5463 5461 5459 5457 5456 5454 5452 5449 5447 5444 5442 5440 5437 5435 5433 5431 5428 5426 5423 5420 5418 5416 5414 5411 5409 5407 5405 5403 5400 5397 5395 5393 5390 5388 5386 5382 5379 5377 5374 5370 5367 5364 5361 5358 5355 5351 5348 5345
5481 5480 5478 5477 5474 5471 5470 5468 5466 5464 5461 5459 5457 5455 5453 5452 5450 5449 5448 5446 5443 5441 5438 5436 5433 5431 5428 5426 5424 5421 5419 5417 5414 5412 5410 5408 5406 5403 5401 5399 5397 5395 5392 5390 5387 5385 5382 5380 5377 5374 5371 5369 5366 5363 5360 5356 5354 5351 5348 5344 5341 5338
5472 5470 5469 5467 5464 5462 5460 5459 5457 5454 5452 5450 5448 5445 5443 5442 5441 5440 5439 5437 5434 5432 5429 5427 5425 5422 5419 5416 5414 5412 5409 5407 5405 5403 5401 5399 5397 5395 5393 5391 5389 5386 5384 5382 5379 5377 5375 5372 5369 5366 5363 5361 5358 5355 5352 5348 5346 5344 5341 5337 5334 5332
5463 5461 5460 5458 5455 5453 5451 5449 5448 5446 5443 5442 5439 5437 5435 5433 5432 5431 5430 5427 5425 5423 5421 5418 5416 5413 5410 5408 5405 5402 5400 5398 5396 5394 5392 5390 5388 5386 5384 5382 5380 5378 5375 5373 5371 5369 5366 5364 5361 5358 5356 5353 5350 5347 5344 5341 5339 5337 5333 5330 5327 5325
5454 5453 5451 5449 5447 5445 5443 5441 5439 5437 5435 5434 5432 5430 5428 5426 5424 5422 5420 5418 5416 5414 5412 5410 5407 5405 5402 5399 5397 5394 5392 5389 5387 5385 5383 5381 5380 5378 5376 5374 5371 5369 5366 5364 5362 5360 5358 5355 5353 5351 5348 5346 5343 5340 5337 5334 5332 5329 5326 5323 5321 5318
5445 5443 5441 5440 5438 5436 5435 5433 5431 5429 5428 5426 5424 5422 5420 5418 5416 5414 5412 5410 5407 5405 5403 5401 5398 5396 5393 5391 5388 5386 5383 5381 5379 5376 5374 5372 5371 5369 5368 5366 5363 5360 5357 5355 5354 5352 5349 5346 5344 5342 5340 5338 5335 5332 5329 5327 5325 5321 5319 5316 5314 5310
5436 5434 5432 5431 5429 5428 5427 5425 5423 5422 5420 5418 5416 5415 5412 5410 5408 5405 5403 5401 5399 5396 5394 5392 5389 5387 5385 5382 5379 5377 5374 5372 5370 5368 5366 5364 5362 5360 5359 5357 5355 5352 5349 5347 5345 5343 5341 5338 5335 5333 5331 5329 5326 5323 5321 5319 5316 5313 5311 5309 5306 5303